Location: Saint Peter Port
(49.4500°N, 2.5330°W)
Time: 14:58:28
(UTC+01:00)

Cosmos 2242 Rocket - Visible Passes

Search period start: 23 July 2014 00:00
Search period end: 02 August 2014 00:00
Orbit: 620 x 653 km, 82.5° (Epoch: 22 July)

Date Brightness Start Highest point End Pass type
(mag) Time Alt. Az. Time Alt. Az. Time Alt. Az.
25 Jul 6.4 04:21:55 10° SE 04:24:52 17° E 04:27:49 10° NE visible
26 Jul 5.5 04:43:28 10° SSE 04:47:29 32° E 04:51:31 10° NNE visible
28 Jul 6.4 03:52:56 10° ESE 03:55:29 15° E 03:58:01 10° NE visible
29 Jul 5.6 04:14:14 10° SE 04:18:04 28° E 04:21:55 10° NNE visible
30 Jul 4.5 04:36:23 10° S 04:40:48 53° E 04:45:13 10° NNE visible
31 Jul 6.4 03:24:05 10° ESE 03:26:06 13° E 03:28:07 10° NE visible
31 Jul 3.7 04:59:07 10° SSW 05:03:40 80° W 05:08:13 10° N visible
01 Aug 5.7 03:45:02 10° SE 03:48:39 24° E 03:52:17 10° NE visible
